TimeMDT,TemperatureF,Dew PointF,Humidity,Sea Level PressureIn,VisibilityMPH,Wind Direction,Wind SpeedMPH,Gust SpeedMPH,PrecipitationIn,Events,Conditions,WindDirDegrees,DateUTC
12:53 AM,41.0,14.0,33,30.18,10.0,Calm,Calm,-,N/A,,Clear,0,2012-10-29 06:53:00
1:53 AM,37.0,12.0,36,30.19,10.0,NE,6.9,-,N/A,,Clear,50,2012-10-29 07:53:00
2:53 AM,35.1,15.1,44,30.19,10.0,NE,3.5,-,N/A,,Clear,40,2012-10-29 08:53:00
3:53 AM,33.1,14.0,46,30.20,10.0,ENE,6.9,-,N/A,,Clear,70,2012-10-29 09:53:00
4:53 AM,32.0,14.0,48,30.20,10.0,East,5.8,-,N/A,,Clear,80,2012-10-29 10:53:00
5:53 AM,34.0,16.0,48,30.22,10.0,East,8.1,-,N/A,,Clear,80,2012-10-29 11:53:00
6:53 AM,34.0,17.1,50,30.24,10.0,East,6.9,-,N/A,,Clear,80,2012-10-29 12:53:00
7:53 AM,28.9,14.0,54,30.28,10.0,ENE,4.6,-,N/A,,Clear,70,2012-10-29 13:53:00
8:53 AM,39.0,18.0,43,30.28,10.0,ESE,8.1,-,N/A,,Clear,110,2012-10-29 14:53:00
9:53 AM,43.0,18.0,37,30.27,10.0,East,5.8,-,N/A,,Clear,100,2012-10-29 15:53:00
10:53 AM,50.0,19.0,29,30.27,10.0,ESE,6.9,-,N/A,,Clear,110,2012-10-29 16:53:00
11:53 AM,57.0,18.0,22,30.25,10.0,Calm,Calm,-,N/A,,Clear,0,2012-10-29 17:53:00
12:53 PM,61.0,15.1,17,30.21,10.0,Calm,Calm,-,N/A,,Clear,0,2012-10-29 18:53:00
1:53 PM,66.0,12.0,12,30.17,10.0,West,6.9,-,N/A,,Clear,270,2012-10-29 19:53:00
2:53 PM,68.0,12.0,11,30.15,10.0,West,11.5,18.4,N/A,,Clear,270,2012-10-29 20:53:00
3:53 PM,69.1,10.9,11,30.14,10.0,West,13.8,-,N/A,,Clear,280,2012-10-29 21:53:00
4:53 PM,68.0,10.0,11,30.13,10.0,West,15.0,-,N/A,,Clear,270,2012-10-29 22:53:00
5:53 PM,66.0,10.0,11,30.13,10.0,WNW,12.7,-,N/A,,Clear,290,2012-10-29 23:53:00
6:53 PM,61.0,9.0,13,30.15,10.0,WNW,6.9,-,N/A,,Clear,290,2012-10-30 00:53:00
7:53 PM,55.9,10.9,17,30.18,10.0,Calm,Calm,-,N/A,,Clear,0,2012-10-30 01:53:00
8:53 PM,52.0,9.0,18,30.17,10.0,WSW,8.1,-,N/A,,Clear,250,2012-10-30 02:53:00
9:53 PM,52.0,10.0,19,30.17,10.0,West,4.6,-,N/A,,Clear,270,2012-10-30 03:53:00
10:53 PM,50.0,12.0,22,30.16,10.0,WSW,6.9,-,N/A,,Clear,240,2012-10-30 04:53:00
11:53 PM,48.0,12.9,24,30.14,10.0,WSW,4.6,-,N/A,,Clear,250,2012-10-30 05:53:00